Regional Weather Roundup
Issued by NWS State College, PA

Home | Current Version | Previous Version | Text Only | Print | Product List | Glossary On
Versions: 1 2 3 4 5 6 7 8 9 10 11 12 13 14 15 16 17 18 19 20 21 22 23 24 25 26 27 28 29 30 31 32 33 34 35 36 37 38 39 40 41 42 43 44 45 46 47 48 49 50
000
ASUS41 KCTP 032310
RWRCTP

REGIONAL WEATHER ROUNDUP
NATIONAL WEATHER SERVICE STATE COLLEGE PA
700 PM EDT SUN MAY 03 2015

Note: "fair" indicates few or no clouds below 12,000 feet with no
significant weather and/or obstructions to visibility.

* = STATION THAT DOES NOT REPORT PRECIPITATION /E.G. RAIN...SNOW...ETC/
    THUNDER OR FOG.

PAZ002>004-007>009-013>016-020>023-029>032-040000-
WESTERN PENNSYLVANIA

CITY           SKY/WX    TMP DP  RH WIND       PRES   REMARKS
ERIE           SUNNY     72  35  25 NW3       30.06F
MEADVILLE      SUNNY     73  37  27 VRB3      30.07S
FRANKLIN*      CLOUDY    73  37  27 SW9       30.10S
NEW CASTLE     FAIR      76  42  29 W8        30.08S
BEAVER COUNTY  NOT AVBL
BUTLER*        MOSUNNY   73  41  31 SW5       30.10S
PITTSBURGH INT MOSUNNY   75  39  27 SW10      30.08F
PITTSBURGH     MOSUNNY   74  35  24 SW12      30.09S
INDIANA*       PTSUNNY   73  41  31 W12       30.13F
LATROBE        MOSUNNY   73  41  31 SW12      30.12S
WASHINGTON CO* SUNNY     73  43  33 SW7       30.12S
$$

PAZ004>006-010>012-017>019-024>028-033>037-041-042-045-046-049>053-040000-
CENTRAL PENNSYLVANIA

CITY           SKY/WX    TMP DP  RH WIND       PRES   REMARKS
BRADFORD       SUNNY     71  33  24 S6        30.10R
DUBOIS         MOSUNNY   72  37  28 SW9       30.09S
CLEARFIELD     SUNNY     73  37  27 W6        30.09S
JOHNSTOWN      MOSUNNY   69  39  33 VRB3      30.13S
ALTOONA        SUNNY     73  40  30 CALM      30.11S
STATE COLLEGE  MOSUNNY   70  41  35 S3        30.08S
WILLIAMSPORT   MOSUNNY   76  39  26 W5        30.04S
SELINSGROVE    SUNNY     72  50  45 SE5       30.06S
FT INDIANTOWN  SUNNY     76  38  24 S3        30.07R
CAPITAL CITY   MOSUNNY   76  41  28 SW5       30.06S
HARRISBURG     MOSUNNY   76  41  28 CALM      30.06S
YORK           MOSUNNY   73  46  38 SW5       30.08S
$$

PAZ038>040-043-044-047-048-054-055-060>062-067>071-040000-
EASTERN PENNSYLVANIA

CITY           SKY/WX    TMP DP  RH WIND       PRES   REMARKS
SCRANTON       MOSUNNY   76  30  18 SW3       30.06S
MOUNT POCONO   PTSUNNY   72  30  21 NE6       30.10R
ALLENTOWN      PTCLDY    76  33  21 W8        30.05S
QUAKERTOWN*    PTCLDY    75  37  25 SW3       30.07S
READING        MOSUNNY   77  36  22 W8        30.05S
LANCASTER      SUNNY     74  39  28 W7        30.07S
COATESVILLE    CLEAR     73  39  29 W5        30.10S
POTTSTOWN      CLEAR     76  34  21 W5        30.08S
BLUE BELL      CLEAR     77  39  25 SW3       30.07S
DOYLESTOWN     CLEAR     76  33  21 VRB3      30.06S
WILLOW GROVE   NOT AVBL
NORTH PHILA    CLEAR     78  35  21 VRB5      30.08S
PHILADELPHIA   PTCLDY    79  37  22 W10       30.07S
$$


USA.gov is the U.S. government's official web portal to all federal, state and local government web resources and services.